Regional Weather Roundup
Issued by NWS Newport/Morehead, NC

Current Version | Previous Version | Graphics & Text | Print | Product List | Glossary Off
Versions: 1 2 3 4 5 6 7 8 9 10 11 12 13 14 15 16 17 18 19 20 21 22 23 24 25 26 27 28 29 30 31 32 33 34 35 36 37 38 39 40 41 42 43 44 45 46 47 48 49 50

000
ASUS42 KMHX 241222
RWRMHX
WEATHER ROUNDUP FOR EASTERN NORTH CAROLINA
NATIONAL WEATHER SERVICE NEWPORT/MOREHEAD CITY NC
800 AM EDT THU JUL 24 2014

NOTE: "FAIR" INDICATES FEW OR NO CLOUDS BELOW 12,000 FEET
WITH NO SIGNIFICANT WEATHER AND/OR OBSTRUCTIONS TO VISIBILITY

NCZ015>017-031-032-045>047-102-103-241300-
NORTH COAST

CITY           SKY/WX    TMP DP  RH WIND       PRES   REMARKS
EDENTON        PTSUNNY   79  76  89 SW9       29.88R
ELIZABETH CITY PTSUNNY   79  75  87 SW8       29.87R
KITTY HAWK     MOSUNNY   80  75  84 W9        29.86S
MANTEO         NOT AVBL

$$

NCZ045>047-081-094-103-104-241300-
CENTRAL COAST

CITY           SKY/WX    TMP DP  RH WIND       PRES   REMARKS
FRISCO         MOSUNNY   80  76  87 W9        29.90S
SWANQUARTER      N/A     81 N/A N/A W10G18    29.85S

$$

NCZ095-097-098-100-101-241300-
SOUTHERN COAST

CITY           SKY/WX    TMP DP  RH WIND       PRES   REMARKS
BEAUFORT       MOSUNNY   82  76  81 W10       29.92S
CEDAR ISLAND     N/A     81 N/A N/A SW13G18   29.94S
JACKSONVILLE   SUNNY     78  75  90 SW10      29.92S
NEWPORT        NOT AVBL
PINEY ISLAND   SUNNY     78  76  93 SW10      29.91S
WILMINGTON     MOSUNNY   80  76  87 SW9       29.94R


$$

NCZ011>013-027>030-043-044-078>080-089-090>093-098-241300-
COASTAL PLAIN

CITY           SKY/WX    TMP DP  RH WIND       PRES   REMARKS
AHOSKIE        MOSUNNY   76  73  91 CALM      29.89R
CLINTON        PTSUNNY   78  76  96 SW6       29.93R
ELIZABETHTOWN  SUNNY     78  76  93 SW7       29.93S
GOLDSBORO      MOSUNNY   78  78  98 SW10      29.89S
GREENVILLE     PTSUNNY   77  75  94 SW10      29.92R
HAVELOCK       NOT AVBL
KENANSVILLE    MOSUNNY   77  74  89 SW8       29.93S
KINSTON        PTSUNNY   79  75  89 SW9       29.91S
NEW BERN       SUNNY     80  74  81 SW8       29.92S
RICHLANDS      PTSUNNY   79  73  83 SW8       29.93S
ROANOKE RAPIDS NOT AVBL
ROCKY MOUNT    PTSUNNY   78  74  87 SW7       29.89R
WASHINGTON     MOSUNNY   77  74  91 SW7       29.90S
WHITEVILLE     MOSUNNY   79  75  89 SW6       29.94R

$$

AMZ130-135-150-152-154-156-158-170-250-252-270-ANZ085-086-088-633-658-670-241300-
MARINE OBSERVATIONS

STATION/POSITION TIME  TEMP    WIND        PRES    WAVE   SWELL
                       AIR SEA DIR/SP/G            HT/PER HT/PER
                 (UTC) (F)     (DEG/KT/KT) (MB)    (FT/S) (FT/S)
CHESAPEAKE LIGHT NOT AVBL
BUOY 44014       1200   78 78  240/ 12/ 16 1010.6    4/ 7   3/ 7
DUCK             1200   79 66  240/ 11/ 15 1010.7
2E DUCK          1200                        N/A     2/10
OREGON INLET     1200   79 83  220/ 13/ 16 1011.5
BUOY 44095       1200      78                N/A     3/ 6
20E OREGON INLET 1100          230/ 14/ 17   N/A
HATTERAS CG      1200   81 81  230/  9/ 13 1013.0
DIAMOND BUOY     1200          VRB 17/ 19  1012.5    5/ 5   2/ 8
CAPE LOOKOUT     1200   81     250/ 15/ 19 1013.3
BEAUFORT LAB     1200   81 81  250/  8/ 16 1013.1
30 SE NEW RIVER  1200   81 80  240/ 16/ 17 1013.8    4/ 6   2/ 7
5 SE WRIGHTSVILL 1200   78 81  240/ 14/ 16   N/A
BUOY 41002       1114   82 82  230/ 19/ 23 1016.9    5/ 5   2/ 9
BUOY 41004       1200   82 82  220/ 14/ 16 1014.1    4/ 6   2/11

$$


USA.gov is the U.S. government's official web portal to all federal, state and local government web resources and services.